Regional Weather Roundup
Issued by NWS Goodland, KS

Home | Current Version | Previous Version | Graphics & Text | Print | Product List | Glossary On
Versions: 1 2 3 4 5 6 7 8 9 10 11 12 13 14 15 16 17 18 19 20 21 22 23 24 25 26 27 28 29 30 31 32 33 34 35 36 37 38 39 40 41 42 43 44 45 46 47 48 49 50
300
ASUS43 KGLD 071508
RWRGLD

GOODLAND FORECAST AREA HOURLY WEATHER ROUNDUP
NATIONAL WEATHER SERVICE GOODLAND KS
800 AM MST SUN FEB 07 2016

...OFFICIAL OBSERVATIONS...

CITY           SKY/WX    TMP DP  RH WIND       PRES   REMARKS
GOODLAND KS    SUNNY     26  15  63 NW14      30.23R WCI  14
HILL CITY KS   PTSUNNY   36  24  62 NW6       30.19R
IMPERIAL NEB   CLOUDY    33  21  61 NW17      30.22R
MCCOOK NEB     CLOUDY    36  24  62 NW17      30.19R
AKRON CO       SUNNY     23  16  74 NW15      30.25R WCI  10
BURLINGTON CO  SUNNY     23  13  65 NW13      30.24R WCI  11
LIMON CO       CLOUDY    17  10  74 NW8       30.25R
$$

...UNOFFICIAL OBSERVATIONS...

CITY           SKY/WX    TMP DP  RH WIND       PRES   REMARKS
COLBY KS       MOSUNNY   30  21  69 NW15      30.22R WCI  19
GOVE KS          N/A     32  32 100 MISG        N/A
LENORA KS        N/A     32  32 100 MISG        N/A
NORTON KS      CLOUDY    34  19  55 W12       30.18R
SHARON SPRINGS   N/A     29  21  72 W6          N/A
KIT CARSON CO    N/A     30  18  60 MISG        N/A
YUMA CO          N/A     25  17  72 N7          N/A
$$




USA.gov is the U.S. government's official web portal to all federal, state and local government web resources and services.